This is the latest recevied weather packets stored in our database for station/object WE3WEE. If no packets are shown the sender has not sent any weather packets the latest 1 day(s).
| Time | Temp. | Humidity | Pressure | Rain* | Wind** | Luminosity | Snow |
|---|---|---|---|---|---|---|---|
| 1778075449 | 14.44° C | 98% | 1007.5 hPa | 2.29 mm | - | - | - |
| 1778073933 | 13.89° C | 97% | 1008.5 hPa | 1.27 mm | - | - | - |
| 1778073630 | 13.89° C | 97% | 1008.5 hPa | 0.76 mm | - | - | - |
| 1778072418 | 14.44° C | 95% | 1008.5 hPa | 2.29 mm | - | - | - |
| 1778072116 | 14.44° C | 95% | 1008.5 hPa | 1.78 mm | - | - | - |
| 1778071511 | 13.89° C | 93% | 1008.5 hPa | 1.27 mm | - | - | - |
| 1778071209 | 13.89° C | 93% | 1008.5 hPa | 1.02 mm | - | - | - |
| 1778069696 | 13.89° C | 93% | 1008.5 hPa | 0.25 mm | - | - | - |
| 1778068485 | 13.89° C | 92% | 1008.5 hPa | 0 mm | - | - | - |
| 1778067579 | 14.44° C | 87% | 1008.5 hPa | 0 mm | - | - | - |
| 1778065460 | 14.44° C | 85% | 1007.5 hPa | 0 mm | - | - | - |
| 1778064853 | 14.44° C | 86% | 1007.5 hPa | 0 mm | - | - | - |
| 1778063946 | 14.44° C | 83% | 1007.5 hPa | 0 mm | - | - | - |
| 1778063340 | 14.44° C | 85% | 1007.5 hPa | 0 mm | - | - | - |
| 1778062735 | 14.44° C | 81% | 1006.5 hPa | 0 mm | - | - | - |
| 1778062431 | 13.89° C | 81% | 1006.5 hPa | 0 mm | - | - | - |
| 1778062129 | 13.89° C | 84% | 1006.5 hPa | 0 mm | - | - | - |
| 1778061525 | 13.89° C | 86% | 1007.5 hPa | 0 mm | - | - | - |
| 1778060919 | 13.89° C | 84% | 1007.5 hPa | 0 mm | - | - | - |
| 1778060618 | 13.89° C | 84% | 1007.5 hPa | 0 mm | - | - | - |
| 1778059710 | 13.89° C | 87% | 1007.5 hPa | 0 mm | - | - | - |
| 1778059408 | 13.89° C | 86% | 1007.5 hPa | 0 mm | - | - | - |
| 1778058802 | 14.44° C | 83% | 1007.5 hPa | 0 mm | - | - | - |
| 1778058197 | 14.44° C | 83% | 1007.5 hPa | 0 mm | - | - | - |
| 1778057893 | 13.89° C | 84% | 1007.5 hPa | 0 mm | - | - | - |
* Rain latest hour (hover to see other rain measurements)
** Current wind speed in m/s (hover to see current wind gust speed)